Lapse_Rate
1.4 1.2 0.3 0.4 0.4 0.4 0.4 -0.0 0.0 0.6 0.6 0.3 0.3 -0.2 -0.4 -0.8 -0.2 -0.1 0.4 0.6 0.9 1.7
2.3 1.6 0.4 0.5 0.7 0.5 0.5 1.3 1.0 1.5 0.7 0.3 -0.1 -0.6 -0.3 -0.3 -0.2 0.2 0.4 0.8 1.4 1.9
2.2 1.7 1.0 1.1 1.3 0.9 0.7 1.5 1.6 1.7 1.1 0.1 -0.6 -0.4 -0.1 0.1 0.4 0.5 0.4 1.0 1.5 2.0
2.1 1.8 1.8 2.0 1.5 1.5 1.8 2.4 2.4 2.2 0.7 0.2 -0.4 0.2 0.5 1.0 0.5 0.5 1.0 1.4 2.0 3.0
2.0 2.1 2.0 2.0 2.1 2.1 2.2 2.7 2.4 2.2 1.2 1.0 1.0 0.7 1.0 0.5 0.6 0.7 1.0 1.9 2.4 2.5
2.5 3.0 2.6 2.3 2.1 2.1 2.2 2.0 1.7 1.7 1.9 2.0 1.4 1.2 1.3 1.1 1.0 1.4 2.0 2.6 3.1 3.8
2.8 3.1 2.8 2.2 2.4 2.3 2.0 1.3 1.2 2.1 2.6 2.5 2.6 2.0 1.7 1.5 1.3 2.4 3.1 3.7 3.5 3.9
2.7 2.6 2.5 2.5 1.8 1.5 1.9 1.6 2.0 2.4 2.7 2.4 3.3 3.5 1.5 2.0 2.3 2.4 2.4 2.9 3.7 4.1
2.2 2.4 2.3 1.9 1.7 1.8 1.5 1.5 1.7 1.5 2.0 2.6 4.9 5.8 3.4 2.1 1.8 2.2 2.6 2.9 3.5 4.2
3.4 3.1 2.4 2.8 2.7 1.5 0.5 0.7 0.7 1.3 2.3 2.8 3.4 5.3 3.2 2.7 2.6 2.9 3.2 3.5 3.3 4.1
3.7 4.1 3.2 2.0 1.4 1.0 1.1 0.7 0.9 1.5 1.8 1.8 3.4 5.1 2.9 3.2 2.8 3.1 3.4 3.8 3.6 3.9
4.4 3.4 2.7 1.7 1.1 1.4 1.1 0.6 0.9 1.7 1.7 1.4 1.8 4.2 3.8 2.4 2.3 2.9 2.5 3.4 3.2 3.9
4.6 3.2 2.1 1.7 0.8 1.3 1.2 1.8 2.7 2.1 1.4 2.2 1.6 3.3 4.2 2.0 1.0 0.5 1.0 2.3 2.6 3.0
4.3 3.2 2.2 1.6 1.4 0.6 1.2 1.5 1.9 1.2 0.8 1.7 1.8 1.7 4.4 4.3 0.4 -1.3 1.2 1.0 0.5 1.3
Wind_Speed
11 7 7 7 6 5 5 4 7 6 8 9 11 11 13 6 6 6 5 6 5 4
10 10 10 9 8 6 6 6 7 8 8 12 14 13 10 6 7 6 6 6 5 4
10 10 11 9 9 9 8 6 6 6 9 11 13 12 8 5 6 6 5 5 7 6
9 10 10 9 9 9 7 6 6 9 10 10 9 7 6 5 7 7 7 7 7 9
10 9 10 9 10 9 8 8 6 9 9 8 8 5 6 7 7 7 8 8 7 8
9 9 10 10 9 9 9 8 8 9 10 8 5 5 5 7 7 7 7 6 7 7
8 9 9 9 10 9 8 8 8 9 9 5 4 6 7 8 7 5 5 6 7 8
7 8 9 9 10 9 9 8 7 7 7 5 5 5 5 7 5 6 7 8 9 8
9 9 9 9 9 9 9 8 7 7 7 5 4 10 12 8 6 8 9 9 9 8
8 9 10 10 9 8 9 8 7 6 5 3 3 12 12 13 7 7 8 8 8 8
9 9 9 10 9 7 7 7 7 6 5 4 5 11 11 13 7 7 8 8 8 9
10 10 8 9 8 7 7 7 7 6 5 5 4 9 13 10 7 7 7 8 9 9
10 10 9 8 8 5 7 8 6 7 4 8 4 8 12 11 4 4 4 6 8 13
9 10 10 8 7 6 7 7 5 7 5 4 4 5 11 14 3 2 5 5 6 6
Wind_Direction
117 124 115 118 118 111 107 103 92 88 81 70 62 60 61 49 39 38 34 37 21 4
124 126 120 114 115 117 112 102 95 85 77 71 63 55 60 47 31 27 22 36 8 2
126 124 118 119 119 108 102 105 94 87 84 76 65 52 42 46 23 27 20 27 12 5
127 121 116 123 116 113 109 104 97 99 90 80 65 51 44 32 29 33 31 21 15 24
125 125 126 120 120 116 110 105 99 105 92 83 81 68 55 38 27 32 31 26 22 11
135 132 123 121 116 111 112 109 96 101 97 95 105 81 63 39 35 31 32 23 15 359
130 130 125 116 111 108 100 93 88 106 107 108 98 84 60 37 38 28 33 25 16 5
121 112 110 111 107 103 96 86 92 98 89 85 65 64 92 41 35 37 31 21 13 1
118 118 118 112 106 105 100 97 91 83 79 59 71 58 51 51 41 35 26 11 8 349
119 124 122 121 116 109 105 105 94 85 83 65 15 53 53 44 42 42 24 13 3 356
128 138 132 116 113 105 112 110 104 95 87 63 44 45 65 47 41 48 21 13 4 356
149 136 130 122 120 132 122 115 111 109 97 75 44 33 62 52 40 40 12 9 4 358
147 137 130 132 128 141 124 120 128 114 89 79 47 24 37 56 50 31 2 359 358 358
139 133 131 132 137 122 117 118 133 105 81 78 53 22 33 33 66 86 11 354 343 340